Time,TemperatureF,DewpointF,PressureIn,WindDirection,WindDirectionDegrees,WindSpeedMPH,WindSpeedGustMPH,Humidity,HourlyPrecipIn,Conditions,Clouds,dailyrainin,SoftwareType,DateUTC
2013-08-31 00:00:00,64.1,63.5,29.73,NW,323,0.0,0.0,98,0.00,,---,0.15,VWS V14.00,2013-08-31 04:00:00,
2013-08-31 00:29:00,63.9,63.3,29.72,NW,323,1.0,2.0,98,0.00,,---,0.00,VWS V14.00,2013-08-31 04:29:00,
2013-08-31 00:59:00,63.3,62.7,29.73,WNW,285,0.0,0.0,98,0.00,,---,0.00,VWS V14.00,2013-08-31 04:59:00,
2013-08-31 01:29:00,62.7,62.1,29.72,WNW,285,0.0,0.0,98,0.00,,---,0.00,VWS V14.00,2013-08-31 05:29:00,
2013-08-31 01:59:00,62.3,62.0,29.71,SW,221,0.0,1.0,99,0.00,,---,0.00,VWS V14.00,2013-08-31 05:59:00,
2013-08-31 02:29:00,61.6,61.0,29.71,WSW,246,0.0,0.0,98,0.00,,---,0.00,VWS V14.00,2013-08-31 06:29:00,
2013-08-31 02:59:00,62.0,61.7,29.72,WSW,246,0.0,1.0,99,0.00,,---,0.00,VWS V14.00,2013-08-31 06:59:00,
2013-08-31 03:29:00,62.0,61.7,29.71,South,188,0.0,0.0,99,0.00,,---,0.00,VWS V14.00,2013-08-31 07:29:00,
2013-08-31 03:59:00,61.3,61.0,29.71,South,188,0.0,0.0,99,0.00,,---,0.00,VWS V14.00,2013-08-31 07:59:00,
2013-08-31 04:29:00,60.4,60.1,29.72,South,180,0.0,0.0,99,0.00,,---,0.00,VWS V14.00,2013-08-31 08:29:00,
2013-08-31 04:59:00,60.9,60.6,29.73,South,180,0.0,0.0,99,0.00,,---,0.00,VWS V14.00,2013-08-31 08:59:00,
2013-08-31 05:29:00,60.9,60.6,29.75,ENE,72,0.0,1.0,99,0.00,,---,0.00,VWS V14.00,2013-08-31 09:29:00,
2013-08-31 05:59:00,61.1,60.8,29.75,ENE,72,0.0,0.0,99,0.00,,---,0.00,VWS V14.00,2013-08-31 09:59:00,
2013-08-31 06:29:00,61.4,61.1,29.76,ENE,72,0.0,0.0,99,0.00,,---,0.00,VWS V14.00,2013-08-31 10:29:00,
2013-08-31 06:59:00,61.4,61.1,29.76,ENE,72,0.0,1.0,99,0.00,,---,0.00,VWS V14.00,2013-08-31 10:59:00,
2013-08-31 07:29:00,61.8,61.8,29.77,ENE,72,0.0,0.0,100,0.00,,---,0.00,VWS V14.00,2013-08-31 11:29:00,
2013-08-31 07:59:00,62.9,62.9,29.77,ENE,72,1.0,1.0,100,0.00,,---,0.00,VWS V14.00,2013-08-31 11:59:00,
2013-08-31 08:29:00,63.3,63.3,29.77,ENE,66,1.0,3.0,100,0.00,,---,0.00,VWS V14.00,2013-08-31 12:29:00,
2013-08-31 08:59:00,63.8,63.5,29.78,NE,46,0.0,1.0,99,0.00,,---,0.00,VWS V14.00,2013-08-31 12:59:00,
2013-08-31 09:29:00,64.1,63.5,29.78,ENE,69,0.0,2.0,98,0.00,,---,0.00,VWS V14.00,2013-08-31 13:29:00,
2013-08-31 09:59:00,64.5,63.6,29.78,ENE,69,0.0,1.0,97,0.00,,---,0.00,VWS V14.00,2013-08-31 13:59:00,
2013-08-31 10:29:00,65.4,63.9,29.79,ENE,77,2.0,3.0,95,0.00,,---,0.00,VWS V14.00,2013-08-31 14:29:00,
2013-08-31 10:59:00,66.2,63.8,29.78,NE,55,0.0,3.0,92,0.00,,---,0.00,VWS V14.00,2013-08-31 14:59:00,
2013-08-31 11:29:00,66.6,64.5,29.78,ENE,68,0.0,2.0,93,0.00,,---,0.00,VWS V14.00,2013-08-31 15:29:00,
2013-08-31 11:59:00,66.6,64.5,29.78,ENE,73,0.0,1.0,93,0.00,,---,0.00,VWS V14.00,2013-08-31 15:59:00,
2013-08-31 12:29:00,67.2,64.5,29.78,ENE,72,0.0,2.0,91,0.00,,---,0.00,VWS V14.00,2013-08-31 16:29:00,
2013-08-31 12:59:00,67.7,64.7,29.78,ENE,74,0.0,1.0,90,0.00,,---,0.00,VWS V14.00,2013-08-31 16:59:00,
2013-08-31 13:29:00,68.3,64.9,29.78,ENE,74,1.0,1.0,89,0.00,,---,0.00,VWS V14.00,2013-08-31 17:29:00,
2013-08-31 13:59:00,68.5,64.5,29.78,ENE,74,0.0,0.0,87,0.00,,---,0.00,VWS V14.00,2013-08-31 17:59:00,
2013-08-31 14:29:00,69.4,65.7,29.77,ESE,105,0.0,1.0,88,0.00,,---,0.00,VWS V14.00,2013-08-31 18:29:00,
2013-08-31 15:00:00,70.4,65.3,29.77,East,88,1.0,2.0,84,0.00,,---,0.00,VWS V14.00,2013-08-31 19:00:00,
2013-08-31 15:29:00,70.7,64.6,29.76,NE,44,2.0,3.0,81,0.00,,---,0.00,VWS V14.00,2013-08-31 19:29:00,
2013-08-31 15:59:00,70.1,65.7,29.77,NE,53,0.0,1.0,86,0.00,,---,0.00,VWS V14.00,2013-08-31 19:59:00,
2013-08-31 16:29:00,70.3,64.9,29.76,NE,49,3.0,3.0,83,0.00,,---,0.00,VWS V14.00,2013-08-31 20:29:00,
2013-08-31 16:59:00,70.3,65.2,29.76,NNE,33,0.0,1.0,84,0.00,,---,0.00,VWS V14.00,2013-08-31 20:59:00,
2013-08-31 17:29:00,70.0,64.9,29.76,ENE,57,1.0,1.0,84,0.00,,---,0.00,VWS V14.00,2013-08-31 21:29:00,
2013-08-31 17:59:00,69.7,65.0,29.76,NNE,21,2.0,3.0,85,0.00,,---,0.00,VWS V14.00,2013-08-31 21:59:00,
2013-08-31 18:29:00,69.0,65.6,29.77,NNE,30,0.0,0.0,89,0.00,,---,0.00,VWS V14.00,2013-08-31 22:29:00,
2013-08-31 18:59:00,68.5,65.8,29.77,NNE,30,0.0,0.0,91,0.00,,---,0.00,VWS V14.00,2013-08-31 22:59:00,
2013-08-31 19:29:00,67.3,65.2,29.78,NNE,30,0.0,0.0,93,0.00,,---,0.00,VWS V14.00,2013-08-31 23:29:00,
2013-08-31 19:59:00,66.4,64.3,29.79,NNE,29,0.0,0.0,93,0.00,,---,0.00,VWS V14.00,2013-08-31 23:59:00,
2013-08-31 20:29:00,65.8,64.0,29.80,NNE,30,0.0,0.0,94,0.00,,---,0.00,VWS V14.00,2013-09-01 00:29:00,
2013-08-31 20:59:00,65.4,63.9,29.80,NNE,30,0.0,0.0,95,0.00,,---,0.00,VWS V14.00,2013-09-01 00:59:00,
2013-08-31 21:29:00,65.0,63.8,29.80,NNE,30,0.0,0.0,96,0.00,,---,0.00,VWS V14.00,2013-09-01 01:29:00,
2013-08-31 21:59:00,64.4,63.2,29.81,North,5,0.0,0.0,96,0.00,,---,0.00,VWS V14.00,2013-09-01 01:59:00,
2013-08-31 22:29:00,63.3,62.1,29.80,North,5,0.0,0.0,96,0.00,,---,0.00,VWS V14.00,2013-09-01 02:29:00,
2013-08-31 22:59:00,62.4,61.5,29.81,North,5,0.0,0.0,97,0.00,,---,0.00,VWS V14.00,2013-09-01 02:59:00,
2013-08-31 23:29:00,62.2,61.6,29.81,North,5,0.0,0.0,98,0.00,,---,0.00,VWS V14.00,2013-09-01 03:29:00,
2013-08-31 23:30:00,62.2,61.6,29.81,North,5,0.0,0.0,98,0.00,,---,0.00,VWS V14.00,2013-09-01 03:30:00,